Dewpoint
15 14 13 13 14 14 15 15 16 16 15 15 16 15 14 14 15 14 14 15 14 15 15 14 14 15 13 13 15 14 14 15 14 14 13 14 13 14 14 13 14 14 15
15 15 13 14 15 15 16 15 15 15 15 15 15 15 15 14 15 15 14 14 14 14 15 15 15 12 13 14 14 12 13 13 13 14 14 14 13 13 13 14 14 16 15
15 15 14 15 15 15 15 15 14 14 15 15 14 16 15 15 16 15 15 14 13 13 13 14 13 13 15 14 14 14 14 13 13 14 14 12 12 13 15 15 14 14 15
15 16 16 15 16 16 14 16 15 13 15 15 13 15 15 16 15 15 15 15 14 14 14 14 14 15 15 15 15 15 14 14 14 13 13 14 14 13 15 15 14 14 14
16 16 16 16 16 16 16 15 17 15 15 16 13 12 14 14 14 13 14 14 14 14 14 14 12 13 15 15 15 16 15 14 15 16 15 14 13 12 12 13 14 12 13
15 16 16 17 17 17 16 17 16 16 15 15 15 14 13 13 13 13 14 14 14 14 14 13 14 12 14 16 15 15 15 16 16 17 16 15 14 14 14 14 14 13 11
16 16 16 17 17 17 17 17 17 18 17 17 15 15 15 15 15 15 15 15 15 15 15 15 14 15 14 14 16 16 16 15 15 15 15 15 15 15 15 15 13 13 12
17 16 17 17 17 17 17 17 17 18 18 18 17 16 16 15 15 16 16 16 16 16 16 16 15 15 15 15 17 17 16 15 12 14 16 16 16 15 15 14 14 12 10
17 18 18 18 18 18 17 17 17 17 18 17 17 17 17 17 16 15 16 16 16 16 16 16 16 16 15 16 16 15 10 11 13 15 16 16 15 15 14 14 13 11 11
18 18 18 18 17 18 17 17 18 18 17 17 17 17 17 17 17 17 16 16 16 16 16 15 15 15 14 13 12 12 13 14 15 14 15 15 14 15 14 13 12 13 12
17 17 18 17 17 18 18 18 18 18 18 18 17 17 17 17 16 16 15 15 16 15 14 14 13 12 14 15 15 15 15 15 15 14 13 12 12 12 11 12 12 12 12
9 14 15 16 17 17 17 17 17 18 18 18 17 16 15 15 15 11 10 6 10 13 14 12 9 11 15 17 15 14 15 13 14 13 10 7 6 10 12 12 11 11 11
10 10 10 12 14 15 16 16 18 18 17 15 9 9 15 14 12 6 6 9 12 16 15 14 13 11 10 13 13 15 13 11 13 9 4 6 9 11 11 11 11 11 11
9 12 13 8 5 7 11 13 14 14 13 11 8 13 13 10 12 11 12 13 14 15 16 16 14 13 13 14 14 14 11 12 9 4 5 8 10 11 11 11 11 11 11
13 12 12 14 14 12 11 11 10 9 9 7 7 8 9 9 6 7 7 8 11 12 13 13 13 12 12 13 11 9 10 8 4 7 7 10 10 11 11 11 12 12 12
9 13 12 13 13 12 13 12 12 11 7 10 10 8 8 9 10 11 10 7 8 10 12 12 11 9 10 11 9 9 8 8 11 12 9 9 11 11 11 11 12 12 12
9 9 10 9 9 10 12 13 12 13 12 11 10 9 10 10 11 11 14 11 9 9 10 10 10 8 8 10 10 10 11 10 11 12 12 9 11 11 12 11 12 11 11
8 9 10 8 8 8 9 6 9 13 12 11 11 10 10 11 12 11 12 15 14 11 11 10 10 9 11 10 11 11 11 11 12 11 11 9 11 11 11 11 11 11 11
7 8 9 9 8 9 7 5 5 6 6 7 8 10 11 10 10 12 12 13 13 13 12 13 13 13 10 10 11 11 11 11 11 10 10 9 11 11 11 11 11 11 11
9 8 8 9 10 6 7 7 6 6 6 5 5 5 6 8 10 9 10 12 13 13 12 13 14 12 11 11 11 10 10 10 10 11 11 8 11 11 11 11 11 11 11
9 10 9 10 8 9 9 8 7 6 5 4 4 7 7 6 7 9 9 10 12 13 12 12 13 12 11 10 9 9 9 9 10 10 8 9 10 11 11 11 11 11 10
9 9 9 8 9 9 9 7 8 6 3 4 5 4 5 6 6 6 8 9 10 11 12 11 12 11 10 9 9 9 9 9 9 9 10 11 11 10 10 10 11 11 10
9 9 9 8 10 8 7 8 8 6 5 4 4 4 4 4 5 6 9 10 11 11 11 10 11 9 9 9 8 9 9 8 7 10 10 11 11 11 11 9 8 8 8
9 9 8 8 9 9 9 8 6 5 4 4 4 4 4 6 6 6 9 10 11 12 12 10 10 9 9 10 9 8 7 7 8 9 8 9 10 10 10 10 9 9 9
10 10 10 9 9 8 9 10 8 7 7 6 7 7 8 8 7 6 10 10 12 11 10 11 9 10 10 9 8 7 6 7 8 7 7 9 9 10 9 10 8 9 9
8 10 10 10 10 10 9 7 7 8 8 7 7 7 8 9 8 9 10 9 6 10 11 11 10 8 9 8 7 7 6 7 7 7 7 8 8 10 10 9 8 7 6
Wind_Speed
26 26 28 27 25 24 27 25 22 19 20 24 24 23 22 20 18 23 22 17 17 16 17 17 16 16 13 13 12 11 9 8 9 11 13 14 17 14 11 12 14 16 14
29 27 27 25 24 25 25 29 25 21 20 25 22 19 19 18 20 23 22 19 21 21 17 16 17 14 15 13 13 12 14 14 12 14 16 17 16 13 14 16 17 15 20
29 28 28 26 24 23 23 23 27 21 19 24 25 24 21 20 21 19 20 18 17 21 21 19 18 15 14 13 12 13 14 14 16 20 23 21 19 15 16 18 20 19 22
32 28 28 30 28 25 21 20 21 20 20 20 28 25 23 22 21 20 21 21 20 19 20 20 20 17 16 14 17 15 17 16 16 19 19 20 20 19 22 24 25 25 25
35 32 28 27 28 28 26 24 22 22 21 20 22 27 26 25 25 23 24 25 22 20 20 18 20 21 17 18 18 19 19 21 21 22 25 25 25 25 25 27 29 30 32
37 34 30 29 27 26 26 26 25 23 23 22 21 22 24 25 26 25 25 25 24 23 25 23 19 19 19 20 20 19 21 23 25 27 29 28 27 27 27 28 30 22 26
35 34 33 30 30 27 25 24 25 25 25 24 23 22 22 22 22 23 22 23 23 21 20 20 18 19 19 17 19 22 23 23 25 29 31 29 27 26 25 25 23 26 27
25 29 28 29 28 28 26 27 27 27 27 27 26 24 23 21 21 23 22 23 25 24 24 23 21 21 20 21 23 27 29 31 34 28 28 27 28 27 27 25 26 27 28
11 14 19 24 24 25 25 23 26 29 28 27 25 23 21 19 18 18 19 21 28 30 28 29 29 30 29 28 30 33 33 32 30 31 31 31 27 24 26 26 27 21 22
6 9 13 17 17 20 22 22 23 27 29 28 27 24 20 17 14 14 16 19 23 27 30 30 29 30 30 29 30 29 28 26 29 28 27 27 26 27 26 24 17 16 16
3 6 9 14 17 17 19 21 22 24 26 28 27 24 21 19 17 14 9 13 22 27 27 25 22 20 19 21 24 25 27 27 28 27 29 27 26 26 22 18 14 13 17
2 3 7 9 13 17 17 18 19 20 21 22 23 22 15 11 15 16 18 21 25 33 32 26 23 22 18 20 22 25 26 27 30 29 28 25 20 16 18 20 16 15 16
9 4 3 5 8 11 12 20 22 20 18 12 8 18 21 27 28 23 25 24 25 32 35 31 27 23 21 18 23 26 24 26 28 28 22 20 16 17 17 17 17 20 19
14 11 8 9 9 12 14 14 13 15 15 21 23 25 28 32 24 24 25 24 25 32 34 34 30 25 20 20 23 25 27 25 26 22 18 16 16 14 15 15 14 14 18
16 15 13 11 10 9 10 13 15 15 18 19 20 20 20 19 12 14 15 22 31 31 27 17 23 23 19 13 17 20 22 22 19 15 14 14 14 12 12 14 12 14 15
22 17 17 14 14 20 18 12 10 8 12 14 14 15 16 17 20 20 18 18 14 16 24 31 33 28 20 18 18 19 17 16 15 13 13 14 13 12 12 11 12 14 14
21 20 25 24 23 20 15 20 19 14 10 9 11 11 11 14 19 23 23 16 17 13 18 21 29 32 23 21 19 18 18 18 15 16 15 15 13 12 13 11 11 12 14
25 24 22 24 25 23 19 16 9 16 22 15 13 11 11 16 18 19 21 25 29 29 29 30 31 31 27 21 19 18 21 22 19 18 17 17 16 14 14 13 12 12 14
29 29 26 26 26 23 19 17 15 17 17 16 17 14 16 18 20 21 23 25 27 27 26 27 25 26 25 22 22 21 21 21 22 21 19 17 16 15 15 13 13 14 14
29 28 26 27 26 26 24 22 18 19 25 26 25 20 24 23 24 25 26 27 26 24 25 28 28 27 27 24 24 25 23 25 25 20 19 18 16 16 15 16 15 16 15
23 24 22 25 30 29 29 30 30 29 27 28 29 29 26 25 27 30 24 25 26 26 27 29 29 30 30 29 26 26 26 26 24 19 16 13 12 17 15 15 16 16 17
24 29 24 29 28 23 28 30 31 29 28 30 30 28 27 31 30 29 30 27 26 23 26 28 29 25 26 32 28 27 27 26 26 19 14 11 12 10 9 13 17 17 16
23 26 27 25 24 26 34 33 34 33 32 33 32 30 30 31 31 30 26 25 25 23 22 24 26 24 23 23 28 29 27 24 26 21 19 18 16 14 11 9 11 9 6
21 26 29 32 33 32 26 27 31 31 29 30 32 33 30 28 30 30 25 26 23 23 21 20 29 26 26 24 26 24 19 17 14 18 18 19 16 14 12 10 8 8 8
16 19 22 26 27 29 27 23 19 16 21 16 17 21 17 20 29 26 25 22 26 28 29 23 20 31 26 28 30 24 21 19 20 21 19 17 16 14 16 14 14 13 13
9 12 15 16 17 17 21 22 21 20 20 21 22 20 18 24 24 26 23 30 31 31 31 30 25 20 31 25 24 25 21 22 19 20 22 21 18 21 18 17 16 15 15
Wind_Direction
216 218 218 220 220 223 225 229 232 232 226 219 236 249 250 237 234 232 228 228 229 237 244 247 260 269 269 257 258 267 280 297 308 299 296 304 310 314 313 295 295 295 303
216 216 213 215 220 221 222 228 234 233 231 218 222 232 233 226 229 228 233 235 231 238 254 257 262 259 270 258 256 262 269 262 281 286 287 287 291 304 308 304 308 291 274
214 215 215 212 214 220 220 224 233 234 229 231 230 230 229 228 223 225 234 235 239 240 254 258 261 261 268 262 258 271 278 274 277 276 282 286 292 286 291 293 295 291 288
219 216 218 216 218 220 225 220 228 229 229 238 233 231 231 236 232 233 236 242 242 244 249 256 260 262 264 263 263 275 284 287 285 283 283 287 288 289 286 288 289 288 284
225 219 220 222 223 224 225 228 228 234 231 233 236 238 237 235 235 234 236 240 243 248 249 254 258 261 268 265 266 275 290 296 294 295 294 293 291 290 289 287 286 287 288
221 226 223 219 220 224 226 226 228 234 237 237 234 234 238 238 238 239 236 241 245 250 254 255 253 258 259 263 272 280 284 286 284 283 288 288 290 292 291 292 292 286 298
219 223 226 223 220 221 225 229 232 234 240 243 246 243 241 241 241 242 243 244 243 247 253 253 252 259 264 262 267 267 269 275 282 287 285 284 287 290 292 297 290 289 292
212 220 229 224 220 222 223 228 235 238 240 243 245 245 248 249 246 248 250 242 244 249 252 254 256 257 257 246 260 269 276 284 289 285 288 287 290 288 292 297 302 299 293
206 198 218 223 222 224 228 236 237 237 241 245 250 247 243 247 250 248 245 246 246 249 251 253 255 258 263 264 267 273 278 283 288 291 286 282 279 284 290 293 301 299 308
213 221 230 237 235 232 239 240 237 237 239 240 239 237 236 244 249 250 254 257 259 256 252 255 261 267 271 271 270 272 279 284 286 287 285 283 284 282 286 290 286 292 308
246 220 229 234 236 238 245 241 237 238 239 238 239 235 233 228 233 232 224 272 274 263 255 254 259 266 277 278 274 275 279 286 288 285 285 284 283 283 274 268 283 288 300
339 215 241 240 228 228 239 251 243 237 236 241 243 240 235 258 245 248 250 248 254 256 251 246 249 248 255 266 270 276 279 286 284 284 284 286 281 267 268 278 284 284 286
291 230 211 189 248 273 254 248 243 241 239 217 238 315 237 233 251 261 261 247 250 248 248 246 247 246 244 253 269 274 277 286 282 284 282 281 277 275 271 269 274 285 286
286 291 258 250 240 239 231 230 234 234 242 250 253 243 251 263 257 250 260 254 245 241 244 246 244 243 248 255 270 275 284 281 277 275 272 274 272 268 260 269 281 285 284
265 270 272 279 278 259 239 249 244 246 250 246 243 244 248 249 264 267 269 263 257 255 248 234 242 245 247 259 285 286 282 270 259 270 273 275 270 265 264 270 278 288 297
271 266 260 270 265 273 266 252 255 261 231 239 238 238 232 249 260 267 268 272 250 239 251 247 251 258 255 275 279 277 262 255 258 270 280 276 262 260 260 269 281 287 298
278 265 260 261 262 283 265 257 264 253 239 238 251 231 240 259 264 259 255 256 252 248 248 252 252 256 260 270 262 254 253 265 270 263 282 278 256 258 254 262 279 282 291
269 270 272 267 262 265 256 286 255 252 266 263 264 263 267 264 269 273 255 244 248 247 250 250 259 252 257 252 248 249 257 249 249 254 275 268 251 261 252 260 265 282 282
265 262 265 267 263 259 264 268 262 259 267 272 272 271 275 278 272 269 268 258 258 258 261 259 255 252 244 243 238 241 240 238 248 259 264 262 246 253 249 254 263 268 275
256 263 260 259 264 262 262 266 264 266 266 270 275 280 274 264 265 277 273 274 271 272 278 268 259 249 237 232 234 237 237 245 247 255 268 261 242 243 250 251 256 261 272
256 257 253 258 257 259 260 259 264 267 266 267 273 269 262 265 272 268 269 278 275 272 279 267 252 248 233 226 231 235 237 240 243 258 263 244 244 246 246 245 250 256 268
256 252 256 256 259 262 264 263 266 263 260 265 271 272 272 267 269 269 268 267 271 276 281 264 253 244 235 222 223 231 234 238 250 246 246 245 241 245 248 244 243 249 257
262 254 256 253 259 256 259 268 257 250 256 259 265 267 271 272 271 277 267 263 264 271 286 250 235 227 219 225 222 234 241 246 244 237 250 252 243 246 249 271 235 218 222
269 265 262 262 269 261 258 257 262 262 264 260 262 268 271 273 269 276 262 262 265 269 273 262 234 222 230 234 232 239 243 234 222 233 253 246 237 239 248 261 225 231 237
282 270 260 255 270 270 261 282 290 307 271 257 274 271 288 279 279 266 256 259 268 269 264 255 251 227 226 231 236 236 240 236 235 236 238 235 237 235 243 254 248 254 257
275 289 281 275 267 264 262 276 279 286 284 278 264 277 295 304 285 267 266 261 262 261 257 252 249 238 225 231 231 232 232 234 237 232 227 232 244 232 231 247 242 249 258
Height
1506 1510 1515 1519 1523 1528 1531 1535 1538 1543 1547 1550 1551 1553 1555 1557 1561 1565 1568 1569 1570 1571 1573 1574 1574 1575 1576 1577 1577 1578 1577 1577 1576 1574 1573 1572 1570 1570 1569 1569 1570 1569 1568
1500 1505 1509 1514 1518 1522 1526 1529 1534 1537 1541 1545 1548 1549 1552 1554 1557 1559 1561 1563 1565 1566 1568 1569 1570 1571 1572 1573 1574 1574 1573 1574 1572 1571 1570 1570 1569 1567 1566 1566 1565 1562 1563
1497 1500 1503 1508 1513 1517 1521 1525 1528 1533 1536 1539 1543 1545 1548 1550 1552 1554 1556 1559 1561 1563 1563 1564 1566 1567 1567 1568 1570 1570 1570 1569 1568 1567 1566 1565 1564 1564 1563 1562 1560 1559 1558
1496 1497 1498 1501 1506 1512 1516 1520 1523 1528 1532 1534 1536 1540 1543 1547 1549 1551 1552 1555 1556 1558 1559 1560 1561 1563 1563 1564 1565 1565 1565 1565 1564 1563 1562 1562 1561 1559 1557 1556 1555 1555 1553
1497 1495 1493 1497 1501 1507 1512 1516 1519 1523 1528 1530 1532 1534 1537 1540 1543 1545 1547 1549 1551 1552 1554 1555 1556 1558 1558 1558 1559 1560 1561 1560 1559 1559 1558 1557 1557 1557 1555 1553 1550 1549 1546
1487 1494 1493 1493 1498 1501 1508 1513 1516 1518 1522 1526 1528 1530 1531 1534 1536 1538 1541 1543 1544 1546 1547 1549 1550 1551 1552 1553 1554 1555 1556 1556 1555 1554 1553 1552 1551 1551 1550 1547 1544 1542 1539
1484 1488 1492 1491 1495 1498 1503 1508 1511 1514 1519 1522 1524 1526 1527 1529 1532 1535 1537 1538 1540 1541 1542 1543 1544 1546 1548 1548 1549 1549 1550 1551 1551 1550 1547 1546 1545 1544 1542 1541 1539 1536 1533
1483 1485 1490 1489 1491 1496 1499 1504 1507 1510 1513 1517 1520 1522 1524 1525 1528 1531 1533 1535 1536 1536 1537 1539 1539 1540 1542 1544 1543 1543 1544 1544 1544 1543 1542 1541 1540 1538 1537 1535 1533 1530 1527
1483 1482 1488 1489 1490 1493 1496 1499 1503 1505 1507 1510 1514 1516 1518 1520 1523 1525 1528 1530 1531 1533 1534 1535 1535 1536 1536 1538 1538 1538 1538 1537 1538 1536 1534 1533 1532 1532 1531 1530 1528 1525 1522
1480 1480 1483 1486 1489 1491 1493 1495 1497 1499 1500 1503 1506 1508 1510 1514 1518 1521 1523 1525 1527 1528 1529 1529 1530 1531 1532 1532 1532 1531 1530 1532 1532 1530 1528 1526 1526 1526 1526 1524 1522 1521 1519
1478 1477 1481 1483 1486 1488 1489 1490 1491 1495 1496 1497 1501 1504 1508 1510 1512 1513 1514 1519 1522 1523 1522 1520 1520 1521 1523 1525 1526 1525 1525 1525 1524 1523 1521 1520 1519 1519 1518 1518 1517 1517 1516
1479 1479 1479 1482 1484 1484 1483 1488 1488 1489 1491 1493 1500 1499 1504 1504 1508 1508 1506 1502 1507 1510 1513 1511 1509 1509 1511 1516 1519 1520 1519 1518 1517 1516 1514 1513 1512 1513 1513 1512 1511 1511 1511
1481 1480 1479 1478 1482 1480 1478 1486 1485 1485 1486 1487 1486 1475 1494 1503 1502 1501 1502 1498 1499 1501 1505 1505 1504 1502 1501 1505 1509 1511 1511 1510 1510 1509 1507 1507 1507 1508 1509 1508 1507 1506 1505
1480 1480 1479 1478 1478 1480 1479 1482 1480 1478 1482 1484 1480 1487 1491 1495 1494 1492 1491 1491 1492 1492 1494 1497 1498 1496 1495 1496 1499 1502 1502 1503 1504 1503 1502 1502 1503 1502 1504 1504 1502 1501 1500
1478 1479 1478 1478 1480 1479 1476 1476 1474 1472 1474 1473 1475 1478 1483 1484 1482 1481 1482 1482 1483 1485 1489 1490 1491 1490 1488 1487 1490 1492 1493 1495 1497 1499 1498 1498 1498 1497 1498 1499 1499 1497 1496
1475 1474 1476 1475 1476 1480 1474 1472 1469 1469 1469 1468 1468 1468 1469 1472 1476 1476 1477 1476 1475 1477 1479 1481 1482 1482 1483 1479 1484 1486 1488 1491 1493 1494 1495 1494 1495 1493 1494 1495 1495 1494 1494
1470 1469 1470 1471 1473 1471 1471 1470 1469 1470 1470 1468 1467 1463 1465 1469 1471 1471 1473 1473 1473 1472 1472 1475 1476 1475 1473 1476 1481 1483 1484 1486 1488 1489 1490 1490 1491 1491 1491 1492 1492 1490 1490
1465 1465 1466 1465 1465 1465 1465 1466 1463 1466 1470 1465 1466 1466 1461 1465 1466 1466 1465 1467 1468 1468 1468 1469 1470 1470 1470 1474 1477 1478 1480 1481 1482 1484 1485 1486 1486 1486 1487 1487 1488 1488 1487
1459 1460 1460 1459 1459 1459 1459 1460 1461 1461 1460 1459 1461 1459 1457 1460 1462 1462 1461 1460 1460 1460 1460 1460 1462 1462 1465 1468 1471 1474 1475 1476 1479 1480 1480 1481 1481 1482 1483 1484 1484 1485 1484
1449 1451 1452 1453 1453 1451 1452 1452 1452 1453 1453 1453 1452 1452 1451 1455 1455 1455 1455 1454 1453 1453 1452 1453 1455 1456 1459 1463 1466 1468 1469 1471 1474 1474 1474 1475 1477 1477 1478 1480 1480 1481 1480
1440 1443 1444 1446 1447 1447 1446 1445 1445 1446 1445 1444 1445 1446 1446 1447 1447 1448 1448 1447 1445 1445 1446 1447 1449 1450 1453 1457 1460 1461 1463 1466 1467 1468 1468 1468 1470 1472 1471 1473 1475 1476 1477
1432 1434 1436 1438 1438 1438 1439 1438 1439 1438 1437 1437 1437 1437 1438 1439 1439 1439 1441 1440 1440 1440 1439 1439 1440 1443 1447 1450 1453 1456 1457 1458 1460 1464 1464 1465 1466 1467 1467 1468 1469 1471 1471
1424 1425 1427 1428 1429 1430 1431 1431 1431 1429 1429 1431 1433 1433 1432 1431 1431 1432 1433 1434 1434 1435 1434 1433 1435 1438 1441 1445 1448 1450 1451 1452 1454 1459 1460 1459 1462 1464 1464 1463 1463 1467 1468
1415 1415 1417 1419 1420 1422 1423 1423 1424 1424 1424 1425 1426 1426 1426 1425 1425 1424 1424 1428 1428 1429 1430 1430 1432 1433 1436 1439 1441 1445 1446 1448 1450 1452 1455 1455 1455 1459 1461 1462 1461 1463 1465
1411 1410 1412 1412 1413 1413 1416 1417 1417 1417 1417 1416 1418 1418 1418 1417 1418 1417 1420 1420 1423 1423 1423 1425 1425 1428 1431 1434 1437 1439 1441 1444 1446 1448 1448 1452 1451 1451 1456 1457 1459 1458 1459
1405 1405 1407 1407 1408 1408 1409 1410 1409 1409 1410 1410 1411 1412 1411 1411 1413 1414 1412 1412 1414 1415 1415 1417 1421 1421 1425 1430 1433 1434 1436 1439 1442 1444 1447 1446 1449 1448 1448 1451 1455 1455 1454